Milwaukee, WI

3:43 PM CDT on October 20, 2017 (GMT -0500)
Gen Mitchell International

Weather History for KMKE - October, 2014

Change the Weather History Date:

Wednesday, October 29, 2014

  Actual Average Record
Temperature  
Mean Temperature 43 °F 47 °F  
Max Temperature 49 °F 54 °F 81 °F (1937)
Min Temperature 36 °F 39 °F 18 °F (1925)
Degree Days  
Heating Degree Days 22 18  
Month to date heating degree days 378 396  
Since 1 July heating degree days 553 548  
Cooling Degree Days 0 0  
Month to date cooling degree days 4 3  
Year to date cooling degree days 464 637  
Moisture  
Dew Point 31 °F    
Average Humidity 63    
Maximum Humidity 76    
Minimum Humidity 50    
Precipitation  
Precipitation T in 0.09 in 1.40 in (1996)
Month to date precipitation 2.79 2.48  
Year to date precipitation 29.22 29.84  
Snow  
Snow 0.00 in 0.10 in 0.40 in (1917)
Month to date snowfall 0.0 0.3  
Since 1 July snowfall 0.0 0.3  
Since 1 September snowfall 0.0 0.3  
Snow Depth 0.00 in    
Sea Level Pressure  
Sea Level Pressure 30.05 in    
Wind  
Wind Speed 10 mph (WNW)    
Max Wind Speed 22 mph    
Max Gust Speed 28 mph    
Visibility 10 miles    
Events      
T = Trace of Precipitation, MM = Missing Value Source: NWS Daily Summary

Daily Weather History Graph

Daily Weather History Graph

Search for Another Location

Airport or City:

Trip Planner

Search our weather history database for the weather conditions in past years. The results will help you decide how hot, cold, wet, or windy it might be!

Date:

Astronomy

Oct. 29, 2014 Rise Set
Actual Time 7:22 AM CDT 5:47 PM CDT
Civil Twilight 6:52 AM CDT 6:17 PM CDT
Nautical Twilight 6:19 AM CDT 6:50 PM CDT
Astronomical Twilight 5:46 AM CDT 7:23 PM CDT
Moon 12:42 PM CDT (10/29) 10:55 PM CDT (10/29)
Length of Visible Light 11h 24m
Length of Day
10h 25m
Waxing Crescent, 34% of the Moon is Illuminated
Oct 29
Waxing Crescent
Oct 30
First Quarter
Nov 6
Full
Nov 14
Last Quarter
Nov 22
New

Hourly Weather History & Observations

Time (CDT) Temp. Windchill Dew Point Humidity Pressure Visibility Wind Dir Wind Speed Gust Speed Precip Events Conditions
12:52 AM 48.0 °F - 35.1 °F 61% 29.91 in 10.0 mi West 10.4 mph - N/A   Overcast
1:52 AM 48.0 °F - 30.9 °F 52% 29.92 in 10.0 mi West 15.0 mph - N/A   Overcast
2:52 AM 46.9 °F - 30.0 °F 52% 29.93 in 10.0 mi WNW 11.5 mph 23.0 mph N/A   Overcast
3:52 AM 45.0 °F 38.9 °F 30.9 °F 58% 29.94 in 10.0 mi WNW 12.7 mph 20.7 mph N/A   Mostly Cloudy
4:52 AM 45.0 °F 37.9 °F 30.9 °F 58% 29.96 in 10.0 mi West 16.1 mph 21.9 mph N/A   Overcast
5:52 AM 45.0 °F 37.4 °F 30.9 °F 58% 29.97 in 10.0 mi WNW 18.4 mph 23.0 mph N/A   Overcast
6:52 AM 44.1 °F 38.1 °F 30.0 °F 58% 29.99 in 10.0 mi WNW 11.5 mph - N/A   Overcast
7:52 AM 44.1 °F 37.4 °F 30.0 °F 58% 30.00 in 10.0 mi WNW 13.8 mph 20.7 mph N/A   Mostly Cloudy
8:52 AM 44.1 °F 37.4 °F 30.9 °F 60% 30.02 in 10.0 mi NW 13.8 mph 21.9 mph N/A   Overcast
9:03 AM 44.1 °F 37.4 °F 30.9 °F 60% 30.01 in 10.0 mi WNW 13.8 mph 21.9 mph N/A   Overcast
9:52 AM 44.6 °F 37.4 °F 30.2 °F 57% 30.02 in 10.0 mi WNW 16.1 mph - N/A   Mostly Cloudy
10:52 AM 45.0 °F 37.9 °F 30.0 °F 56% 30.06 in 10.0 mi West 16.1 mph 23.0 mph N/A   Mostly Cloudy
11:52 AM 46.9 °F - 30.0 °F 52% 30.07 in 10.0 mi WNW 12.7 mph - N/A   Mostly Cloudy
12:52 PM 46.9 °F - 30.9 °F 54% 30.07 in 10.0 mi NW 13.8 mph 23.0 mph N/A   Mostly Cloudy
1:52 PM 48.0 °F - 30.9 °F 52% 30.07 in 10.0 mi NW 17.3 mph 24.2 mph N/A   Mostly Cloudy
2:52 PM 48.0 °F - 30.9 °F 52% 30.09 in 10.0 mi WNW 11.5 mph - N/A   Mostly Cloudy
3:52 PM 46.9 °F - 30.0 °F 52% 30.10 in 10.0 mi WNW 13.8 mph - N/A   Overcast
4:52 PM 46.9 °F - 30.0 °F 52% 30.11 in 10.0 mi WNW 10.4 mph - N/A   Mostly Cloudy
5:52 PM 46.9 °F - 30.9 °F 54% 30.12 in 10.0 mi NW 9.2 mph - N/A   Mostly Cloudy
6:52 PM 46.0 °F 44.8 °F 30.9 °F 56% 30.14 in 10.0 mi NW 3.5 mph - N/A   Mostly Cloudy
7:52 PM 45.0 °F 42.6 °F 32.0 °F 60% 30.14 in 10.0 mi North 4.6 mph - N/A   Mostly Cloudy
8:52 PM 44.1 °F - 30.9 °F 60% 30.14 in 10.0 mi Calm Calm - N/A   Mostly Cloudy
9:52 PM 41.0 °F - 30.0 °F 65% 30.14 in 10.0 mi Calm Calm - N/A   Scattered Clouds
10:52 PM 37.0 °F - 30.0 °F 76% 30.14 in 10.0 mi Calm Calm - N/A   Clear
11:52 PM 39.0 °F - 32.0 °F 76% 30.14 in 10.0 mi Calm Calm - N/A   Clear